Location: Catowice
(50.2584°N, 19.0275°E)
Time: 04:45:34
(UTC+00:00)

Daily predictions for brighter satellites

Satellite Brightness Start Highest point End
(mag) Time Altitude Azimuth Time Altitude Azimuth Time Altitude Azimuth
CZ-4C R/B 4.0 01:36:43 29° NE 01:36:43 29° NE 01:39:46 10° NE
Cosmos 2237 Rocket 4.1 01:38:03 26° NE 01:38:03 26° NE 01:40:28 10° NE
Cosmos 2219 Rocket 4.2 01:44:59 23° NNE 01:44:59 23° NNE 01:47:04 10° NNE
Cosmos 2360 Rocket 4.4 01:57:55 16° N 01:57:55 16° N 01:59:37 10° NNE
Cosmos 1943 Rocket 3.7 01:56:19 32° ENE 01:56:19 32° ENE 02:00:21 10° ESE
BREEZE-M DEB (TANK) 4.1 02:01:57 76° E 02:01:57 76° E 02:06:18 10° ENE
ATLAS 2AS CENTAUR R/B 4.3 01:59:43 27° NNW 02:01:46 30° N 02:08:21 10° ENE
Lacrosse 5 4.1 02:06:04 19° ESE 02:06:04 19° ESE 02:07:31 10° ESE
COSMOS 2428 4.4 02:10:41 25° N 02:10:41 25° N 02:13:22 10° NNE
ATLAS CENTAUR R/B 3.7 02:16:07 24° ENE 02:16:07 24° ENE 02:18:00 10° NE
SL-16 R/B 2.9 02:19:42 49° E 02:19:42 49° E 02:24:27 10° NE
CZ-2C R/B 4.1 02:16:16 10° NNE 02:20:50 31° E 02:22:17 26° ESE
ADEOS II 4.2 02:19:28 10° N 02:20:47 17° N 02:20:47 17° N
IDEFIX/ARIANE 42P 3.6 02:21:24 10° NNE 02:24:45 40° NNE 02:24:45 40° NNE
Cosmos 2369 Rocket 3.1 02:24:49 29° N 02:27:17 45° NE 02:32:46 10° SE
USA 215 3.2 02:46:40 10° ENE 02:53:10 69° NNW 02:54:03 62° WNW
Cosmos 2333 Rocket 3.9 02:55:44 21° NNW 02:55:44 21° NNW 02:59:03 10° NNE
Meteor 2-3 Rocket 4.0 02:52:08 10° N 02:57:52 68° ENE 03:03:38 10° SSE
ADEOS 3.6 02:53:14 10° NNE 02:58:30 79° ESE 02:58:57 72° SSE
Cosmos 1842 Rocket 4.4 03:03:16 31° SSE 03:05:03 49° E 03:09:24 10° NNE
Cosmos 921 Rocket 4.2 03:03:41 10° N 03:07:57 42° ENE 03:12:06 10° SE
Meteor 2-10 Rocket 3.4 03:16:51 65° WNW 03:16:51 65° WNW 03:21:48 10° N
Cosmos 1934 Rocket 4.5 03:10:40 10° NNW 03:15:15 42° NW 03:15:15 42° NW
NOSS 3-1 (A) 4.5 03:19:35 39° SW 03:19:35 39° SW 03:26:52 10° S
Cosmos 2237 Rocket 3.2 03:19:53 30° NW 03:19:53 30° NW 03:24:20 10° NNE
CZ-4C R/B 3.1 03:21:54 34° NW 03:22:45 36° NNW 03:28:45 10° NE
Cosmos 2221 3.1 03:19:42 17° S 03:22:49 56° E 03:27:04 10° NNE
COSMO-SKYMED 1 3.4 03:19:44 10° SE 03:23:55 49° ENE 03:28:08 10° N
SJ-6F 4.3 03:20:41 10° NNE 03:24:49 90° NW 03:24:49 90° NW
Cosmos 2219 Rocket 4.0 03:26:42 16° NNW 03:26:46 16° NNW 03:30:18 10° N
USA 267 4.4 03:23:23 10° S 03:26:50 23° SSW 03:26:50 23° SSW
STARLINK-1162 4.1 03:30:28 42° NE 03:30:28 42° NE 03:33:01 10° ENE
Meteor 1-27 4.4 03:24:24 10° S 03:29:56 72° E 03:35:29 10° NNE
STARLINK-1157 4.0 03:32:28 43° NE 03:32:28 43° NE 03:35:06 10° E
STARLINK-1159 3.8 03:34:37 45° NNE 03:34:37 45° NNE 03:37:22 10° E
STARLINK-1171 3.7 03:36:51 47° NNE 03:36:51 47° NNE 03:39:42 10° E
STARLINK-1155 3.7 03:38:56 48° NNE 03:38:56 48° NNE 03:41:52 10° E
Cosmos 1943 Rocket 2.2 03:37:57 41° WNW 03:39:19 50° WSW 03:44:35 10° S
Meteor 1-31 Rocket 2.6 03:36:18 10° NNE 03:40:08 90° NW 03:41:21 43° SSW
STARLINK-1166 3.6 03:41:08 50° NNE 03:41:08 50° NNE 03:44:10 10° E
Cosmos 1605 Rocket 4.1 03:36:48 10° NNW 03:42:44 47° W 03:48:32 10° SSW
STARLINK-1165 3.5 03:43:18 50° N 03:43:18 50° N 03:46:26 10° E
STARLINK-1179 3.8 03:44:56 37° NE 03:44:56 37° NE 03:46:56 10° E
STARLINK-1176 3.8 03:45:27 38° NE 03:45:27 38° NE 03:47:29 10° E
Lacrosse 5 2.5 03:45:19 36° SW 03:45:19 36° SW 03:49:50 10° SSE
STARLINK-1169 3.4 03:45:27 51° N 03:45:28 51° N 03:48:40 10° E
NOSS 2-1 (C) 3.8 03:46:04 38° NNW 03:46:04 38° NNW 03:49:37 10° NE
CZ-4B R/B 2.6 03:42:27 10° NNE 03:46:09 83° ESE 03:48:09 25° S
STARLINK-1178 3.4 03:47:36 51° N 03:47:43 51° N 03:50:56 10° E
STARLINK-1120 3.4 03:49:40 50° NNW 03:49:53 51° N 03:53:05 10° E
NOSS 2-1 (D) 3.9 03:50:03 36° NNW 03:50:03 36° NNW 03:53:42 10° NE
STARLINK-1131 3.4 03:51:51 49° NNW 03:52:10 52° N 03:55:22 10° E
ATLAS CENTAUR R/B 2.4 03:52:19 31° NW 03:52:47 32° NW 03:56:44 10° NNE
STARLINK-1190 3.4 03:54:05 48° NNW 03:54:30 52° N 03:57:43 10° E
ATLAS 2AS CENTAUR R/B 3.8 03:47:17 10° NW 03:54:44 44° NNE 04:01:40 10° E
ALOS 2.8 03:50:27 10° NNE 03:55:06 61° ESE 03:59:43 10° S
PAYLOAD A 4.4 03:52:59 10° N 03:57:29 39° WNW 03:58:46 33° W
MSX 4.5 03:53:42 10° N 03:58:46 34° WNW 04:00:17 29° W
CZ-2C R/B 2.8 03:54:17 10° N 03:59:12 45° WNW 04:01:40 26° WSW
FENGYUN 3A 4.0 03:56:32 10° NNE 04:01:59 68° ESE 04:07:24 10° S
ADEOS Rocket 3.9 03:55:46 10° SE 04:02:01 58° ENE 04:08:59 10° N
SL-16 R/B 2.9 04:01:36 28° W 04:03:18 34° NW 04:08:29 10° NNE
Cosmos 2251 Rocket 4.3 04:03:08 29° W 04:04:21 32° NW 04:09:07 10° N
IDEFIX/ARIANE 42P 3.9 04:01:59 10° N 04:05:34 20° NW 04:05:34 20° NW
Cosmos 1356 Rocket 4.5 04:06:32 26° NW 04:06:32 26° NW 04:09:30 10° N
Cosmos 1869 3.1 04:02:18 10° SSW 04:06:17 79° W 04:10:16 10° N
Cosmos 1400 Rocket 4.5 04:02:40 10° SSE 04:06:23 37° E 04:10:11 10° NNE
Sich 1 3.2 04:02:22 10° N 04:06:40 72° ENE 04:10:58 10° SSE
Cosmos 1805 Rocket 3.4 04:02:21 10° NNW 04:06:43 84° W 04:11:03 10° S
Cosmos 1633 2.4 04:05:49 10° NNW 04:09:27 69° W 04:13:04 10° S
H-2A R/B 2.7 04:06:17 10° N 04:10:34 52° WNW 04:14:55 10° SW
TELKOM 3 2.8 04:11:16 71° SE 04:11:16 71° SE 04:13:14 10° E
Cosmos 2369 Rocket 2.7 04:06:41 13° NW 04:11:14 38° WSW 04:16:28 10° S
Meteor PRIRODA 3.5 04:07:38 10° N 04:11:21 67° WNW 04:14:59 10° SSW
BREEZE-M DEB (TANK) 3.9 04:09:16 27° W 04:11:56 59° SSW 04:26:48 10° SE
SKYMED 2 3.6 04:07:43 10° S 04:12:00 58° W 04:16:19 10° NNW
Cosmos 2084 4.5 04:08:31 10° SSW 04:12:51 48° SE 04:17:11 10° NE
Cosmos 1500 Rocket 4.1 04:09:48 10° NNW 04:13:52 35° W 04:17:52 10° SSW
Cosmos 1727 Rocket 4.1 04:08:11 10° SSW 04:14:11 53° WNW 04:20:15 10° N
Cosmos 2173 Rocket 3.9 04:10:56 10° NNW 04:17:10 65° W 04:23:17 10° S
STARLINK-1129 3.3 04:16:07 30° WNW 04:17:28 59° N 04:20:43 10° E
Cosmos 1603 3.7 04:13:48 10° SW 04:19:29 69° WNW 04:25:11 10° NNE
Cosmos 1023 Rocket 4.5 04:14:28 10° SSW 04:19:45 89° WNW 04:25:05 10° NNE
STARLINK-1134 3.3 04:18:28 28° WNW 04:19:58 60° NNE 04:23:14 10° E
Cosmos 1656 Rocket 3.7 04:14:29 10° NW 04:20:07 64° WSW 04:25:44 10° SSE
STARLINK-1135 3.3 04:20:52 27° WNW 04:22:28 61° NNE 04:25:45 10° E
Cosmos 1943 3.1 04:17:46 10° SSW 04:23:24 79° WNW 04:29:05 10° NNE
Aureole 2 Rocket 3.9 04:25:20 17° SW 04:25:20 17° SW 04:26:35 10° SSW
STARLINK-1141 3.3 04:23:07 25° WNW 04:24:48 62° NNE 04:28:06 10° E
CZ-4B DEB 4.3 04:20:32 10° NNE 04:26:04 81° ESE 04:31:32 10° SSW
Cosmos 1743 Rocket 4.5 04:22:48 10° NNW 04:26:20 25° W 04:29:51 10° SW
STARLINK-1140 3.2 04:25:23 24° WNW 04:27:10 63° NNE 04:30:28 10° E
Okean O Rocket 2.3 04:24:58 10° NNE 04:29:19 58° ESE 04:33:36 10° S
STARLINK-1156 3.2 04:27:38 23° WNW 04:29:31 64° NNE 04:32:48 10° E
STARLINK-1149 2.7 04:28:55 26° WNW 04:30:16 67° NNE 04:33:02 10° E
STARLINK-1118 2.6 04:29:28 24° SW 04:30:50 68° SSE 04:33:28 10° ENE
STARLINK-1148 3.2 04:29:54 22° WNW 04:31:54 65° NNE 04:35:11 10° E
CZ-4B R/B 3.7 04:27:23 10° NNE 04:32:40 61° ESE 04:37:53 10° S
STARLINK-1153 2.9 04:31:48 23° WNW 04:33:27 67° NNE 04:36:21 10° E
STARLINK-1180 2.9 04:32:00 23° WNW 04:33:40 67° NNE 04:36:36 10° E
STARLINK-1174 2.9 04:32:28 23° WNW 04:34:08 67° NNE 04:37:03 10° E
Cosmos 2100 Rocket 4.2 04:28:17 10° NNW 04:34:11 46° W 04:40:01 10° SSW
STARLINK-1158 3.2 04:32:09 21° WNW 04:34:14 67° NNE 04:37:31 10° E
STARLINK-1139 2.8 04:32:42 23° WNW 04:34:22 67° NNE 04:37:17 10° E
SJ-12 4.0 04:30:24 10° N 04:34:27 56° WNW 04:38:30 10° SSW
STARLINK-1133 2.8 04:32:53 22° WNW 04:34:34 67° NNE 04:37:29 10° E
STARLINK-1151 2.8 04:33:07 22° WNW 04:34:48 67° NNE 04:37:44 10° E
Cosmos 1151 Rocket 4.3 04:31:02 10° SSE 04:35:08 44° E 04:39:18 10° NNE
STARLINK-1160 2.8 04:33:46 22° WNW 04:35:28 68° NNE 04:38:24 10° E
STARLINK-1161 2.8 04:33:58 22° WNW 04:35:42 68° NNE 04:38:37 10° E
USA 215 3.8 04:29:30 10° ENE 04:35:46 50° N 04:41:24 13° WNW
STARLINK-1145 2.8 04:34:12 22° WNW 04:35:55 68° NNE 04:38:51 10° E
STARLINK-1172 2.8 04:34:24 22° WNW 04:36:09 68° NNE 04:39:03 10° E
STARLINK-1182 2.8 04:34:50 21° WNW 04:36:36 69° NNE 04:39:31 10° E
STARLINK-1164 2.8 04:35:03 21° WNW 04:36:48 69° NNE 04:39:44 10° E
STARLINK-1168 2.8 04:35:17 21° WNW 04:37:03 69° NNE 04:39:58 10° E
Shenzhou-11 Module 4.1 04:35:36 10° SSW 04:37:16 15° S 04:38:58 10° SE
STARLINK-1183 2.8 04:35:55 21° WNW 04:37:43 69° NNE 04:40:38 10° ESE
STARLINK-1181 2.8 04:36:08 21° WNW 04:37:56 70° NNE 04:40:52 10° ESE
STARLINK-1196 2.8 04:36:47 20° WNW 04:38:37 70° NNE 04:41:33 10° ESE
STARLINK-1186 2.8 04:37:12 20° WNW 04:39:04 70° NNE 04:41:59 10° ESE
STARLINK-1185 2.8 04:37:27 20° WNW 04:39:19 71° NNE 04:42:15 10° ESE
STARLINK-1175 2.8 04:37:39 20° WNW 04:39:31 71° NNE 04:42:26 10° ESE
STARLINK-1147 2.8 04:37:52 20° WNW 04:39:44 71° NNE 04:42:40 10° ESE
STARLINK-1146 2.8 04:38:04 20° WNW 04:39:57 71° NNE 04:42:53 10° ESE
STARLINK-1152 2.8 04:38:18 20° WNW 04:40:13 71° NNE 04:43:09 10° ESE
STARLINK-1132 2.6 04:38:36 20° WNW 04:40:23 76° NNE 04:43:12 10° ESE
STARLINK-1195 2.8 04:38:30 19° WNW 04:40:25 71° NNE 04:43:21 10° ESE
MOS 1-B 4.3 04:34:42 10° NNE 04:40:32 77° WNW 04:46:20 10° SSW
STARLINK-1098 4.1 04:36:37 10° SW 04:40:37 57° SSE 04:44:38 10° ENE
STARLINK-1137 2.8 04:38:44 19° WNW 04:40:38 72° NNE 04:43:34 10° ESE
STARLINK-1142 2.8 04:38:57 19° WNW 04:40:52 72° NNE 04:43:48 10° ESE
STARLINK-1127 2.8 04:39:09 19° WNW 04:41:05 72° NNE 04:44:01 10° ESE
Cosmos 1140 Rocket 3.5 04:35:53 10° SW 04:41:05 64° WNW 04:46:21 10° NNE
STARLINK-1184 2.8 04:39:23 19° WNW 04:41:19 72° NNE 04:44:14 10° ESE
STARLINK-1193 2.8 04:39:36 19° WNW 04:41:33 72° NNE 04:44:28 10° ESE
Cosmos 1954 Rocket 4.0 04:36:25 10° SSW 04:41:45 87° WNW 04:47:07 10° NNE
STARLINK-1194 2.8 04:39:48 19° WNW 04:41:46 73° NNE 04:44:42 10° ESE
Cosmos 1862 3.4 04:38:23 10° NNW 04:42:15 52° W 04:46:06 10° S
STARLINK-1150 2.6 04:40:49 19° WNW 04:42:41 78° NNE 04:45:29 10° ESE
Cosmos 407 Rocket 3.8 04:37:33 10° SW 04:42:41 48° WNW 04:47:48 10° NNE
Cosmos 1328 Rocket 4.4 04:38:31 10° S 04:42:51 55° E 04:47:14 10° NNE
Helios 1A Rocket 3.8 04:39:34 10° NNE 04:43:40 54° E 04:47:43 10° S
GEOS 3 Rocket 3.7 04:38:39 10° NE 04:43:54 64° NW 04:49:10 10° WSW
STARLINK-1163 2.6 04:42:02 18° WNW 04:43:57 79° NNE 04:46:46 10° ESE
Cosmos 1459 Rocket 4.3 04:39:04 10° NNW 04:44:48 42° W 04:50:37 10° SSW
STARLINK-1123 4.0 04:41:39 10° SW 04:45:38 60° SSE 04:49:39 10° ENE
STARLINK-1177 2.6 04:43:44 18° WNW 04:45:42 81° NNE 04:48:31 10° ESE
STARLINK-1173 2.6 04:43:46 18° WNW 04:45:45 81° NNE 04:48:34 10° ESE
Cosmos 1484 Rocket 3.7 04:42:24 10° N 04:45:49 28° WNW 04:49:15 10° SW
Cosmos 921 Rocket 4.1 04:42:25 10° NW 04:46:01 24° W 04:49:32 10° SSW
STARLINK-1167 2.6 04:44:15 17° WNW 04:46:14 81° NNE 04:49:03 10° ESE
BREEZE M DEB (TANK) 3.7 04:45:29 15° W 04:48:16 66° SSW 04:57:58 10° ESE
USA 116 3.8 04:46:42 10° SSW 04:49:33 32° W 04:52:24 10° NNW
STARLINK-1097 4.0 04:46:14 10° SW 04:50:17 64° SSE 04:54:21 10° ENE
STARLINK-1136 2.5 04:48:59 15° WNW 04:51:10 86° NNE 04:53:59 10° ESE
Cosmos 2061 Rocket 4.2 04:45:33 10° NNW 04:51:37 51° W 04:57:35 10° SSW
Cosmos 1340 2.7 04:48:53 10° NNW 04:52:40 87° E 04:56:26 10° SSE
STARLINK-1099 3.9 04:51:01 10° SW 04:55:05 68° SSE 04:59:10 10° ENE
STARLINK-1170 2.4 04:53:23 14° WNW 04:55:32 89° SSW 04:58:11 10° ESE
STARLINK-1070 2.6 04:54:21 11° WSW 04:57:06 85° NNW 05:00:03 10° ENE
Cosmos 220 Rocket 4.2 04:52:55 10° NNW 04:57:10 75° ENE 05:01:22 10° SSE
STARLINK-1124 2.7 04:54:42 12° WSW 04:57:21 76° NNW 05:00:18 10° ENE
STARLINK-1066 2.6 04:54:55 11° WSW 04:57:41 84° NNW 05:00:37 10° ENE
Cosmos 1725 Rocket 4.1 04:51:41 10° NNW 04:57:48 58° W 05:03:56 10° S
STARLINK-1081 2.6 04:55:09 11° WSW 04:57:56 84° NNW 05:00:53 10° ENE
STARLINK-1069 2.6 04:55:34 11° WSW 04:58:22 84° NNW 05:01:18 10° ENE
STARLINK-1085 2.6 04:55:46 11° WSW 04:58:34 84° NNW 05:01:31 10° ENE
STARLINK-1086 2.6 04:56:03 11° WSW 04:58:51 83° NNW 05:01:48 10° ENE
STARLINK-1095 2.6 04:56:13 11° WSW 04:59:02 83° NNW 05:01:59 10° ENE
STARLINK-1077 2.6 04:56:27 11° WSW 04:59:17 83° NNW 05:02:13 10° ENE
STARLINK-1075 2.6 04:56:39 11° WSW 04:59:29 83° NNW 05:02:26 10° ENE
STARLINK-1093 2.6 04:56:52 11° WSW 04:59:43 82° NNW 05:02:39 10° ENE
STARLINK-1104 3.8 04:55:52 10° WSW 04:59:57 72° SSE 05:04:02 10° ENE
STARLINK-1074 2.6 04:57:06 11° WSW 04:59:58 82° NNW 05:02:54 10° ENE
STARLINK-1087 2.6 04:57:17 10° WSW 05:00:09 82° NNW 05:03:06 10° ENE
COSMO-SKYMED 1 3.8 04:57:05 10° SW 05:00:22 21° W 05:03:39 10° NW
STARLINK-1088 2.6 04:57:30 10° WSW 05:00:22 82° NNW 05:03:18 10° ENE
Cosmos 1633 Rocket 3.1 04:56:09 10° NNW 05:00:27 56° W 05:04:44 10° S
STARLINK-1115 2.6 04:57:44 10° WSW 05:00:37 82° NNW 05:03:34 10° ENE
Cosmos 2221 3.9 04:57:49 10° WSW 05:00:47 18° WNW 05:03:47 10° NNW
STARLINK-1076 2.6 04:57:58 10° WSW 05:00:51 81° NNW 05:03:48 10° ENE
STARLINK-1092 2.6 04:58:11 10° WSW 05:01:05 81° NNW 05:04:02 10° ENE
STARLINK-1080 2.6 04:58:22 10° WSW 05:01:16 81° NNW 05:04:13 10° ENE
STARLINK-1090 2.6 04:58:37 10° WSW 05:01:32 81° NNW 05:04:28 10° ENE
STARLINK-1089 2.6 04:58:51 10° WSW 05:01:47 81° NNW 05:04:43 10° ENE
STARLINK-1107 2.6 04:59:02 10° WSW 05:01:57 80° NNW 05:04:53 10° ENE
STARLINK-1109 2.6 04:59:15 10° WSW 05:02:11 80° NNW 05:05:07 10° ENE
STARLINK-1091 2.6 04:59:30 10° WSW 05:02:26 80° NNW 05:05:23 10° ENE
STARLINK-1072 2.6 04:59:40 10° WSW 05:02:36 80° NNW 05:05:32 10° ENE
STARLINK-1096 2.6 04:59:55 10° WSW 05:02:50 80° NNW 05:05:46 10° ENE
Cosmos 1515 Rocket 4.5 04:58:43 10° S 05:03:03 55° E 05:07:24 10° NNE
STARLINK-1079 2.6 05:00:09 10° WSW 05:03:05 79° NNW 05:06:02 10° ENE
STARLINK-1116 2.6 05:00:23 10° WSW 05:03:19 79° NNW 05:06:15 10° ENE
METEOR-M 4.5 04:58:30 10° N 05:03:32 43° WNW 05:08:31 10° SW
Cosmos 2123 Rocket 4.0 04:57:26 10° SSW 05:03:42 65° WNW 05:09:59 10° N
STARLINK-1094 2.7 05:00:53 10° WSW 05:03:49 79° NNW 05:06:45 10° ENE
Cosmos 1666 Rocket 3.9 04:59:40 10° NNW 05:03:53 43° W 05:08:03 10° SSW
STARLINK-1117 2.6 05:01:03 10° WSW 05:03:59 79° NNW 05:06:55 10° ENE
Cosmos 1346 Rocket 2.7 05:00:06 10° NNW 05:04:02 88° WSW 05:07:55 10° S
STARLINK-1078 2.6 05:01:17 10° WSW 05:04:13 78° NNW 05:07:09 10° ENE
STARLINK-1108 2.6 05:01:31 10° WSW 05:04:27 78° NNW 05:07:23 10° ENE
Cosmos 1933 Rocket 3.9 05:00:06 10° N 05:04:28 69° ENE 05:08:47 10° SSE
STARLINK-1071 2.7 05:01:44 10° WSW 05:04:39 78° NNW 05:07:35 10° ENE
STARLINK-1144 3.8 05:00:41 10° WSW 05:04:46 75° SSE 05:08:52 10° ENE
STARLINK-1110 2.7 05:02:01 10° WSW 05:04:56 78° NNW 05:07:52 10° ENE
STARLINK-1122 2.7 05:02:25 10° WSW 05:05:21 77° NNW 05:08:17 10° ENE
Cosmos 2237 Rocket 4.2 05:03:47 10° NW 05:05:25 11° NNW 05:07:04 10° N
STARLINK-1126 2.7 05:02:37 10° WSW 05:05:33 77° NNW 05:08:30 10° ENE
STARLINK-1082 2.7 05:02:52 10° WSW 05:05:47 77° NNW 05:08:44 10° ENE
STARLINK-1100 2.7 05:03:06 10° WSW 05:06:01 77° NNW 05:08:58 10° ENE
STARLINK-1083 2.7 05:03:19 10° WSW 05:06:14 77° NNW 05:09:10 10° ENE
STARLINK-1162 2.9 05:03:01 10° WNW 05:06:16 88° SSW 05:09:31 10° ESE
STARLINK-1125 2.7 05:03:32 10° WSW 05:06:28 76° NNW 05:09:24 10° ENE
PAYLOAD B 4.3 05:01:01 10° N 05:06:31 59° WNW 05:11:57 10° SW
STARLINK-1157 2.9 05:05:06 10° WNW 05:08:21 86° SSW 05:11:36 10° ESE
STARLINK-1128 3.7 05:05:22 10° WSW 05:09:26 80° SSE 05:13:29 10° ENE
STARLINK-1103 3.7 05:05:33 10° WSW 05:09:38 79° SSE 05:13:45 10° ENE
Cosmos 1238 Rocket 4.4 05:05:11 10° NNW 05:10:35 33° W 05:15:18 10° SSW
STARLINK-1159 3.0 05:07:21 10° WNW 05:10:36 84° SSW 05:13:52 10° ESE
COSMOS 2455 3.6 05:04:40 10° NNW 05:10:36 56° NE 05:16:31 10° SE
Envisat 4.1 05:06:23 10° NNE 05:11:21 50° E 05:16:17 10° S
NOSS 3-4 (A) 4.1 05:04:38 10° NW 05:11:29 74° NE 05:19:05 10° SE
NOSS 3-4 (C) 4.1 05:04:44 10° NW 05:11:35 74° NE 05:19:10 10° SE
Iridium 51 4.1 05:07:49 10° SSW 05:11:39 64° W 05:15:14 10° N
Cosmos 1741 Rocket 4.4 05:07:38 10° SSW 05:12:52 73° ESE 05:18:09 10° NNE
STARLINK-1171 3.0 05:09:40 10° WNW 05:12:56 82° SSW 05:16:11 10° ESE
CZ-4C R/B 4.0 05:08:04 10° NW 05:13:07 26° N 05:18:56 10° ENE
STARLINK-1113 3.6 05:09:58 10° WSW 05:14:01 84° SSE 05:18:05 10° ENE
STARLINK-1101 3.7 05:10:20 10° WSW 05:14:26 83° SSE 05:18:33 10° ENE
STARLINK-1155 3.0 05:11:50 10° WNW 05:15:06 80° SSW 05:18:21 10° ESE
Cosmos 468 Rocket 4.1 05:11:13 10° NNW 05:16:28 60° WSW 05:21:38 10° S
BREEZE-M DEB (TANK) 3.6 05:13:35 10° SW 05:17:09 34° SSE 05:19:20 10° E
